This is the latest recevied weather packets stored in our database for station/object KB9ZI. If no packets are shown the sender has not sent any weather packets the latest 1 day(s).
| Time | Temp. | Humidity | Pressure | Rain* | Wind** | Luminosity | Snow |
|---|---|---|---|---|---|---|---|
| 1778024850 | 8.89° C | 47% | 1010.4 hPa | 0 mm | 0 m/s | - | - |
| 1778024729 | 8.89° C | 47% | 1010.4 hPa | 0 mm | 0 m/s | - | - |
| 1778024669 | 9.44° C | 46% | 1010.4 hPa | 0 mm | 0 m/s | - | - |
| 1778024490 | 9.44° C | 46% | 1010.3 hPa | 0 mm | 0 m/s | - | - |
| 1778024343 | 9.44° C | 46% | 1010.4 hPa | 0 mm | 0 m/s | - | - |
| 1778024316 | 9.44° C | 46% | 1010.4 hPa | 0 mm | 0 m/s | - | - |
| 1778024100 | 9.44° C | 46% | 1010.4 hPa | 0 mm | 0 m/s | - | - |
| 1778023979 | 9.44° C | 45% | 1010.3 hPa | 0 mm | 0 m/s | - | - |
| 1778023860 | 10° C | 46% | 1010.3 hPa | 0 mm | 0 m/s | - | - |
| 1778023750 | 10° C | 49% | 1010.4 hPa | 0 mm | 0 m/s | - | - |
| 1778023735 | 9.44° C | 46% | 1010.3 hPa | 0 mm | 0 m/s | - | - |
| 1778023492 | 10° C | 48% | 1010.3 hPa | 0 mm | 0 m/s | - | - |
| 1778023369 | 10° C | 48% | 1010.3 hPa | 0 mm | 0 m/s | - | - |
| 1778023253 | 10° C | 47% | 1010.2 hPa | 0 mm | 0 m/s | - | - |
| 1778023129 | 10° C | 46% | 1010.3 hPa | 0 mm | 0 m/s | - | - |
| 1778023090 | 10° C | 47% | 1010.3 hPa | 0 mm | 0 m/s | - | - |
| 1778022888 | 10° C | 47% | 1010.4 hPa | 0 mm | 0 m/s | - | - |
| 1778022769 | 10° C | 47% | 1010.4 hPa | 0 mm | 0 m/s | - | - |
| 1778022690 | 10° C | 46% | 1010.4 hPa | 0 mm | 0 m/s | - | - |
| 1778022511 | 10° C | 47% | 1010.3 hPa | 0 mm | 0 m/s | - | - |
| 1778022390 | 10° C | 47% | 1010.3 hPa | 0 mm | 0 m/s | - | - |
| 1778022271 | 10° C | 47% | 1010.4 hPa | 0 mm | 0 m/s | - | - |
| 1778022195 | 10° C | 47% | 1010.5 hPa | 0 mm | 0 m/s | - | - |
| 1778022180 | 10° C | 47% | 1010.3 hPa | 0 mm | 0 m/s | - | - |
| 1778021883 | 10° C | 47% | 1010.4 hPa | 0 mm | 0 m/s | - | - |
* Rain latest hour (hover to see other rain measurements)
** Current wind speed in m/s (hover to see current wind gust speed)